When you browse on this site, cookies collect data to enhance your experience and personalize the content and advertising you see.
Visit our Privacy Policy to learn more. By continuing to use the site, you agree to this use of cookies and data.
  • Em Portugal
  • Lista de países
  • Para 7 dias
  • Temperatura da água
  • Mapa do tempo
  • Widgets de tempo
  • user-avatar
    Iniciar Sessão

    Previsão horária em Lankaran

    Hoje, 22 Agosto, Quinta-feira

    Tempo Temperatura Precipitação Vento Pressão Humidade
    00:00 +16°C° 0 mm 1 m/s 633 mmHg 36%
    01:00 +15°C° 0 mm 1 m/s 633 mmHg 35%
    02:00 +15°C° 0 mm 1 m/s 633 mmHg 35%
    03:00 +15°C° 0 mm 1 m/s 633 mmHg 34%
    04:00 +15°C° 0 mm 1 m/s 633 mmHg 33%
    05:00 +15°C° 0 mm 0 m/s 634 mmHg 31%
    06:00 +15°C° 0 mm 0 m/s 634 mmHg 30%
    07:00 +20°C° 0 mm 1 m/s 635 mmHg 26%
    08:00 +23°C° 0 mm 2 m/s 636 mmHg 23%
    09:00 +25°C° 0 mm 2 m/s 637 mmHg 19%
    10:00 +26°C° 0 mm 3 m/s 637 mmHg 19%
    11:00 +27°C° 0 mm 3 m/s 637 mmHg 19%
    12:00 +29°C° 0 mm 4 m/s 636 mmHg 19%
    13:00 +28°C° 0 mm 4 m/s 636 mmHg 19%
    14:00 +28°C° 0 mm 4 m/s 636 mmHg 20%
    15:00 +28°C° 0 mm 4 m/s 636 mmHg 20%
    16:00 +26°C° 0 mm 4 m/s 635 mmHg 26%
    17:00 +24°C° 0 mm 3 m/s 634 mmHg 31%
    18:00 +21°C° 0 mm 2 m/s 633 mmHg 36%
    19:00 +19°C° 0 mm 2 m/s 633 mmHg 37%
    20:00 +19°C° 0 mm 1 m/s 633 mmHg 38%
    21:00 +16°C° 0 mm 1 m/s 632 mmHg 39%
    22:00 +16°C° 0 mm 1 m/s 632 mmHg 40%
    23:00 +16°C° 0 mm 1 m/s 632 mmHg 41%

    Amanhã, 23 Agosto, Sexta-feira

    Tempo Temperatura Precipitação Vento Pressão Humidade
    00:00 +16°C° 0 mm 1 m/s 632 mmHg 41%
    01:00 +16°C° 0 mm 1 m/s 633 mmHg 40%
    02:00 +15°C° 0 mm 1 m/s 633 mmHg 38%
    03:00 +15°C° 0 mm 1 m/s 633 mmHg 37%
    04:00 +16°C° 0 mm 1 m/s 633 mmHg 38%
    05:00 +16°C° 0 mm 1 m/s 633 mmHg 38%
    06:00 +18°C° 0 mm 1 m/s 633 mmHg 39%
    07:00 +19°C° 0 mm 2 m/s 634 mmHg 34%
    08:00 +22°C° 0 mm 3 m/s 635 mmHg 29%
    09:00 +26°C° 0 mm 3 m/s 636 mmHg 24%
    10:00 +27°C° 0 mm 4 m/s 637 mmHg 23%
    11:00 +28°C° 0 mm 4 m/s 637 mmHg 21%
    12:00 +29°C° 0 mm 5 m/s 637 mmHg 20%
    13:00 +29°C° 0 mm 5 m/s 636 mmHg 21%
    14:00 +29°C° 0 mm 5 m/s 636 mmHg 22%
    15:00 +28°C° 0 mm 5 m/s 635 mmHg 24%
    16:00 +26°C° 0 mm 4 m/s 635 mmHg 28%
    17:00 +23°C° 0 mm 4 m/s 634 mmHg 33%
    18:00 +22°C° 0 mm 3 m/s 633 mmHg 38%
    19:00 +20°C° 0 mm 2 m/s 633 mmHg 38%
    20:00 +19°C° 0 mm 2 m/s 633 mmHg 39%
    21:00 +19°C° 0 mm 1 m/s 633 mmHg 40%
    22:00 +19°C° 0 mm 1 m/s 633 mmHg 39%
    23:00 +19°C° 0 mm 1 m/s 633 mmHg 38%

    Depois de amanhã, 24 Agosto, Sábado

    Tempo Temperatura Precipitação Vento Pressão Humidade
    00:00 +18°C° 0 mm 1 m/s 633 mmHg 37%
    01:00 +18°C° 0 mm 1 m/s 633 mmHg 38%
    02:00 +18°C° 0 mm 1 m/s 633 mmHg 39%
    03:00 +16°C° 0 mm 1 m/s 633 mmHg 40%
    04:00 +18°C° 0 mm 1 m/s 633 mmHg 38%
    05:00 +19°C° 0 mm 1 m/s 633 mmHg 36%
    06:00 +19°C° 0 mm 1 m/s 634 mmHg 34%
    07:00 +21°C° 0 mm 2 m/s 635 mmHg 31%
    08:00 +25°C° 0 mm 3 m/s 636 mmHg 27%
    09:00 +27°C° 0 mm 3 m/s 637 mmHg 23%
    10:00 +28°C° 0 mm 4 m/s 637 mmHg 23%
    11:00 +29°C° 0 mm 4 m/s 637 mmHg 23%
    12:00 +30°C° 0 mm 5 m/s 637 mmHg 23%
    13:00 +30°C° 0 mm 5 m/s 636 mmHg 23%
    14:00 +29°C° 0 mm 5 m/s 636 mmHg 24%
    15:00 +29°C° 0 mm 5 m/s 636 mmHg 24%
    16:00 +27°C° 0 mm 4 m/s 635 mmHg 28%
    17:00 +25°C° 0 mm 3 m/s 635 mmHg 32%
    18:00 +23°C° 0 mm 2 m/s 634 mmHg 36%
    19:00 +21°C° 0 mm 2 m/s 634 mmHg 36%
    20:00 +20°C° 0 mm 1 m/s 634 mmHg 36%
    21:00 +19°C° 0 mm 1 m/s 634 mmHg 36%
    22:00 +19°C° 0 mm 1 m/s 634 mmHg 36%
    23:00 +19°C° 0 mm 1 m/s 634 mmHg 35%

    25 Agosto, Domingo

    Tempo Temperatura Precipitação Vento Pressão Humidade
    00:00 +19°C° 0 mm 1 m/s 634 mmHg 35%
    01:00 +18°C° 0 mm 1 m/s 634 mmHg 36%
    02:00 +18°C° 0 mm 1 m/s 634 mmHg 38%
    03:00 +16°C° 0 mm 1 m/s 633 mmHg 39%
    04:00 +18°C° 0 mm 1 m/s 634 mmHg 38%
    05:00 +18°C° 0 mm 1 m/s 634 mmHg 37%
    06:00 +17°C° 0 mm 0 m/s 635 mmHg 36%
    07:00 +21°C° 0 mm 1 m/s 636 mmHg 31%
    08:00 +24°C° 0 mm 2 m/s 636 mmHg 27%
    09:00 +27°C° 0 mm 2 m/s 637 mmHg 22%
    10:00 +28°C° 0 mm 3 m/s 637 mmHg 22%
    11:00 +28°C° 0 mm 3 m/s 637 mmHg 22%
    12:00 +29°C° 0 mm 4 m/s 637 mmHg 22%
    13:00 +29°C° 0 mm 4 m/s 637 mmHg 22%
    14:00 +29°C° 0 mm 4 m/s 637 mmHg 22%
    15:00 +29°C° 0 mm 5 m/s 637 mmHg 23%
    16:00 +27°C° 0 mm 4 m/s 636 mmHg 28%
    17:00 +24°C° 0 mm 3 m/s 635 mmHg 33%
    18:00 +21°C° 0 mm 2 m/s 634 mmHg 38%
    19:00 +20°C° 0 mm 2 m/s 634 mmHg 39%
    20:00 +20°C° 0 mm 1 m/s 634 mmHg 40%
    21:00 +18°C° 0 mm 1 m/s 634 mmHg 41%
    22:00 +19°C° 0 mm 1 m/s 634 mmHg 40%
    23:00 +19°C° 0 mm 1 m/s 634 mmHg 38%

    26 Agosto, Segunda-feira

    Tempo Temperatura Precipitação Vento Pressão Humidade
    00:00 +19°C° 0 mm 1 m/s 634 mmHg 37%
    01:00 +18°C° 0 mm 1 m/s 634 mmHg 38%
    02:00 +18°C° 0 mm 1 m/s 633 mmHg 40%
    03:00 +15°C° 0 mm 0 m/s 633 mmHg 41%
    04:00 +16°C° 0 mm 0 m/s 633 mmHg 41%
    05:00 +16°C° 0 mm 0 m/s 633 mmHg 40%
    06:00 +17°C° 0 mm 0 m/s 634 mmHg 39%
    07:00 +21°C° 0 mm 1 m/s 635 mmHg 35%
    08:00 +24°C° 0 mm 1 m/s 636 mmHg 30%
    09:00 +26°C° 0 mm 2 m/s 636 mmHg 26%
    10:00 +27°C° 0 mm 2 m/s 636 mmHg 26%
    11:00 +28°C° 0 mm 3 m/s 636 mmHg 26%
    12:00 +29°C° 0 mm 3 m/s 636 mmHg 26%
    13:00 +29°C° 0 mm 4 m/s 636 mmHg 26%
    14:00 +29°C° 0 mm 4 m/s 636 mmHg 26%
    15:00 +28°C° 0 mm 4 m/s 635 mmHg 26%
    16:00 +26°C° 0 mm 3 m/s 635 mmHg 30%
    17:00 +22°C° 0 mm 3 m/s 634 mmHg 34%
    18:00 +20°C° 0 mm 2 m/s 634 mmHg 38%
    19:00 +20°C° 0 mm 2 m/s 634 mmHg 37%
    20:00 +20°C° 0 mm 1 m/s 635 mmHg 35%
    21:00 +20°C° 0 mm 1 m/s 635 mmHg 34%
    22:00 +19°C° 0.1 mm 1 m/s 635 mmHg 35%
    23:00 +19°C° 0.1 mm 1 m/s 635 mmHg 35%

    27 Agosto, Terça-feira

    Tempo Temperatura Precipitação Vento Pressão Humidade
    00:00 +18°C° 0.1 mm 1 m/s 635 mmHg 36%
    01:00 +16°C° 0 mm 1 m/s 635 mmHg 38%
    02:00 +15°C° 0 mm 1 m/s 635 mmHg 40%
    03:00 +15°C° 0 mm 2 m/s 634 mmHg 42%
    04:00 +15°C° 0.1 mm 2 m/s 635 mmHg 41%
    05:00 +15°C° 0.1 mm 2 m/s 635 mmHg 40%
    06:00 +15°C° 0.1 mm 2 m/s 636 mmHg 39%
    07:00 +17°C° 0.1 mm 2 m/s 636 mmHg 36%
    08:00 +19°C° 0.1 mm 3 m/s 637 mmHg 33%
    09:00 +21°C° 0.1 mm 4 m/s 638 mmHg 30%
    10:00 +21°C° 0 mm 4 m/s 638 mmHg 30%
    11:00 +22°C° 0 mm 5 m/s 638 mmHg 31%
    12:00 +23°C° 0 mm 6 m/s 638 mmHg 31%
    13:00 +22°C° 0 mm 6 m/s 638 mmHg 34%
    14:00 +21°C° 0 mm 6 m/s 637 mmHg 38%
    15:00 +21°C° 0 mm 6 m/s 637 mmHg 41%
    16:00 +19°C° 0 mm 5 m/s 637 mmHg 47%
    17:00 +18°C° 0 mm 4 m/s 636 mmHg 52%
    18:00 +16°C° 0 mm 3 m/s 636 mmHg 58%
    19:00 +14°C° 0 mm 3 m/s 636 mmHg 60%
    20:00 +14°C° 0 mm 2 m/s 636 mmHg 62%
    21:00 +13°C° 0 mm 2 m/s 636 mmHg 65%
    22:00 +12°C° 0 mm 2 m/s 636 mmHg 66%
    23:00 +12°C° 0 mm 2 m/s 636 mmHg 68%
    Mostrar mais